Weather reports worldwide

Advertisment
Catania/Sigonella, Italy (16459): temperature & dewpoint: 17.04.2018 01:00:00 - 23.04.2018 01:00:00 (CEST)Catania/Sigonella, Italy (16459): wind speed: 17.04.2018 01:00:00 - 23.04.2018 01:00:00 (CEST)Catania/Sigonella, Italy (16459): wind direction: 17.04.2018 01:00:00 - 23.04.2018 01:00:00 (CEST)Catania/Sigonella, Italy (16459): reduced air pressure: 17.04.2018 01:00:00 - 23.04.2018 01:00:00 (CEST)Catania/Sigonella, Italy (16459): visibility: 17.04.2018 01:00:00 - 23.04.2018 01:00:00 (CEST)
Date & Time tt [°C] td [°C] ff [km/h] ff [kn] dd ppp [hPa] vv [km]
23.04.2018 01:00:00 12,0 11,0 8 4 WSW - 10
23.04.2018 00:00:00 16,0 16,0 8 4 WNW - 10
22.04.2018 23:00:00 15,0 14,5 8 4 WSW 1019,6 10
22.04.2018 22:00:00 14,0 14,0 8 4 W - 10
22.04.2018 21:00:00 16,0 15,0 9 5 W - 10
22.04.2018 20:00:00 17,2 13,1 9 5 WSW 1018,6 15
22.04.2018 19:00:00 19,0 13,0 11 6 WSW - 10
22.04.2018 18:00:00 19,0 12,0 16 9 W - 10
22.04.2018 17:00:00 18,8 13,7 16 9 W 1019,7 12
22.04.2018 16:00:00 19,0 13,0 24 13 W - 10
22.04.2018 15:00:00 21,0 17,0 11 6 E - 10
22.04.2018 14:00:00 23,0 15,3 22 12 E 1019,4 10
22.04.2018 13:00:00 25,0 15,0 13 7 E - 10
22.04.2018 12:00:00 23,0 15,0 16 9 E - 10
22.04.2018 11:00:00 22,0 14,6 15 8 E 1019,9 15
22.04.2018 10:00:00 21,0 16,0 8 4 E - 10
22.04.2018 09:00:00 17,0 15,0 5 3 NNW - 10
22.04.2018 08:00:00 13,2 12,7 8 4 W 1019,6 10
22.04.2018 07:00:00 10,0 10,0 8 4 SW - 10
22.04.2018 06:00:00 12,0 11,0 8 4 W - 10
22.04.2018 05:00:00 11,0 10,7 9 5 WSW 1019,5 13
22.04.2018 04:00:00 12,0 12,0 8 4 W - 10
22.04.2018 03:00:00 13,0 13,0 13 7 W - 10
22.04.2018 02:00:00 13,2 12,9 11 6 W 1020,0 13
22.04.2018 01:00:00 13,0 13,0 8 4 WSW - 10
22.04.2018 00:00:00 15,0 15,0 11 6 W - 10
21.04.2018 23:00:00 14,4 14,1 9 5 W 1020,3 13
21.04.2018 22:00:00 15,0 15,0 4 2 NW - 10
21.04.2018 21:00:00 16,0 16,0 5 3 ESE - 10
21.04.2018 20:00:00 17,4 14,5 5 3 SSW 1019,0 10
21.04.2018 19:00:00 20,0 14,0 5 3 N - 10
21.04.2018 18:00:00 23,0 11,0 22 12 NW - 7
21.04.2018 17:00:00 25,0 11,9 18 10 E 1018,6 7
21.04.2018 16:00:00 25,0 12,0 24 13 ENE - 7
21.04.2018 15:00:00 24,0 11,0 24 13 E - 7
21.04.2018 14:00:00 26,0 9,8 24 13 E 1018,8 8
21.04.2018 13:00:00 28,0 11,0 15 8 E - 10
21.04.2018 12:00:00 27,0 10,0 8 4 ESE - 10
21.04.2018 11:00:00 23,8 11,8 5 3 WNW 1019,3 10
21.04.2018 10:00:00 21,0 15,0 8 4 W - 10
21.04.2018 09:00:00 18,0 16,0 9 5 WSW - 10
21.04.2018 08:00:00 12,4 12,4 9 5 W 1019,2 10
21.04.2018 07:00:00 11,0 11,0 9 5 W - 10
21.04.2018 06:00:00 12,0 12,0 8 4 WNW - 8
21.04.2018 05:00:00 12,0 12,0 11 6 W 1019,0 8
21.04.2018 04:00:00 12,0 12,0 9 5 W - 8
21.04.2018 03:00:00 13,0 13,0 9 5 W - 8
21.04.2018 02:00:00 13,4 13,4 5 3 WSW 1019,0 8
21.04.2018 01:00:00 13,0 13,0 9 5 SW - 10
21.04.2018 00:00:00 14,0 14,0 5 3 S - 10
20.04.2018 23:00:00 15,6 15,6 4 2 NW 1019,0 10
20.04.2018 22:00:00 16,0 16,0 4 2 SSW - 10
20.04.2018 21:00:00 16,0 16,0 8 4 SW - 10
20.04.2018 20:00:00 19,0 16,0 4 2 WNW 1018,5 11
20.04.2018 19:00:00 21,0 15,0 5 3 WSW - 10
20.04.2018 18:00:00 22,0 13,0 13 7 ENE - 10
20.04.2018 17:00:00 24,8 12,4 24 13 E 1017,4 12
20.04.2018 16:00:00 27,0 10,0 15 8 ESE - 10
20.04.2018 15:00:00 27,0 11,0 5 3 SE - 10
20.04.2018 14:00:00 27,2 12,1 5 3 SW 1019,3 11
20.04.2018 13:00:00 26,0 12,0 11 6 E - 10
20.04.2018 12:00:00 25,0 13,0 9 5 E - 10
20.04.2018 11:00:00 23,4 14,7 5 3 S 1020,7 9
20.04.2018 10:00:00 20,0 17,0 9 5 WSW - 7
20.04.2018 09:00:00 17,0 16,0 8 4 W - 6
20.04.2018 08:00:00 13,0 13,0 5 3 W 1021,2 5
20.04.2018 07:00:00 11,0 11,0 8 4 W - 6
20.04.2018 06:00:00 11,0 11,0 8 4 W - 6
20.04.2018 05:00:00 12,0 12,0 8 4 WSW 1021,1 10
20.04.2018 04:00:00 13,0 13,0 9 5 W - 10
20.04.2018 03:00:00 13,0 13,0 9 5 W - 10
20.04.2018 02:00:00 12,6 12,6 9 5 W 1022,5 10
20.04.2018 01:00:00 13,0 13,0 9 5 WSW - 10
20.04.2018 00:00:00 14,0 14,0 9 5 W - 10
19.04.2018 23:00:00 15,2 15,2 5 3 WNW 1022,9 10
19.04.2018 22:00:00 16,0 16,0 4 2 ENE - 10
19.04.2018 21:00:00 17,0 16,0 5 3 ENE - 10
19.04.2018 20:00:00 17,6 17,3 11 6 E 1021,4 10
19.04.2018 19:00:00 19,0 17,0 13 7 E - 10
19.04.2018 18:00:00 20,0 17,0 22 12 E - 10
19.04.2018 17:00:00 21,2 16,4 24 13 E 1021,8 10
19.04.2018 16:00:00 22,0 16,0 26 14 E - 8
19.04.2018 15:00:00 23,0 15,0 29 16 E - 10
19.04.2018 14:00:00 23,2 16,3 22 12 E 1022,8 7
19.04.2018 13:00:00 22,0 16,0 22 12 E - 7
19.04.2018 12:00:00 21,0 15,0 22 12 E - 7
19.04.2018 11:00:00 21,2 16,6 15 8 E 1022,9 7
19.04.2018 10:00:00 19,0 17,0 9 5 SSE - 6
19.04.2018 09:00:00 15,0 15,0 4 2 W - 6
19.04.2018 08:00:00 13,8 13,5 9 5 W 1023,4 6
19.04.2018 07:00:00 14,0 14,0 8 4 WNW - 6
19.04.2018 06:00:00 14,0 14,0 8 4 W - 7
19.04.2018 05:00:00 13,8 13,8 9 5 WNW 1022,8 6
19.04.2018 04:00:00 13,0 13,0 8 4 WSW - 5
19.04.2018 03:00:00 14,0 14,0 8 4 W - 5
19.04.2018 02:00:00 14,2 14,2 8 4 WSW 1023,5 5
19.04.2018 01:00:00 14,0 14,0 8 4 W - 4,8
19.04.2018 00:00:00 15,0 15,0 4 2 N - 6
18.04.2018 23:00:00 15,0 14,8 2 1 N 1023,5 6
18.04.2018 22:00:00 15,0 15,0 4 2 W - 6
18.04.2018 21:00:00 15,0 15,0 9 5 SE - 6
18.04.2018 20:00:00 16,4 16,4 9 5 ESE 1022,5 4,0
18.04.2018 19:00:00 18,0 18,0 13 7 E - 4,5
18.04.2018 18:00:00 19,0 17,0 16 9 E - 4,0
18.04.2018 17:00:00 19,0 18,2 18 10 E 1022,3 4,0
18.04.2018 16:00:00 19,0 19,0 22 12 E - 4,0
18.04.2018 15:00:00 19,0 19,0 21 11 E - 4,0
18.04.2018 14:00:00 19,6 19,0 26 14 E 1022,5 4,5
18.04.2018 13:00:00 19,0 18,0 29 16 E - 4,5
18.04.2018 12:00:00 19,0 18,0 22 12 E - 5
18.04.2018 11:00:00 18,6 18,6 8 4 NE 1022,7 6
18.04.2018 10:00:00 15,0 15,0 5 3 WSW - 6
18.04.2018 09:00:00 15,0 15,0 9 5 WSW - 5
18.04.2018 08:00:00 14,4 14,4 8 4 NNW 1022,3 4,0
18.04.2018 07:00:00 15,0 15,0 8 4 W - 5
18.04.2018 06:00:00 14,0 14,0 5 3 W - 5
18.04.2018 05:00:00 14,0 14,0 5 3 ESE 1020,6 7
18.04.2018 04:00:00 14,0 14,0 4 2 WSW - 10
18.04.2018 03:00:00 15,0 15,0 8 4 WNW - 10
18.04.2018 02:00:00 15,8 15,8 5 3 N 1020,6 10
18.04.2018 01:00:00 16,0 16,0 2 1 E - 10
18.04.2018 00:00:00 16,0 16,0 2 1 S - 10
17.04.2018 23:00:00 16,0 15,8 5 3 SE 1020,6 10
17.04.2018 22:00:00 17,0 17,0 9 5 E - 10
17.04.2018 21:00:00 18,0 18,0 13 7 ENE - 10
17.04.2018 20:00:00 18,2 17,4 13 7 ENE 1018,7 10
17.04.2018 19:00:00 19,0 11,0 15 8 E - 10
17.04.2018 18:00:00 21,0 11,0 22 12 E - 10
17.04.2018 17:00:00 22,2 11,9 24 13 E 1018,3 10
17.04.2018 16:00:00 23,0 12,0 26 14 E - 10
17.04.2018 15:00:00 23,0 13,0 28 15 E - 10
17.04.2018 14:00:00 24,2 12,5 24 13 E 1018,5 10
17.04.2018 13:00:00 25,0 10,0 9 5 E - 10
17.04.2018 12:00:00 23,0 14,0 9 5 SE - 10
17.04.2018 11:00:00 22,2 12,7 4 2 NE 1019,3 10
17.04.2018 10:00:00 19,0 9,0 4 2 NE - 10
17.04.2018 09:00:00 14,0 9,0 2 1 W - 10
17.04.2018 08:00:00 12,8 10,2 4 2 W 1018,4 15
17.04.2018 07:00:00 9,0 9,0 8 4 W - 10
17.04.2018 06:00:00 9,0 9,0 5 3 WSW - 10
17.04.2018 05:00:00 12,4 11,1 8 4 WNW 1017,4 13
17.04.2018 04:00:00 12,0 11,0 8 4 WSW - 10
17.04.2018 03:00:00 14,0 10,0 5 3 WNW - 10
17.04.2018 02:00:00 14,0 9,8 16 9 W 1017,4 13
17.04.2018 01:00:00 14,0 9,0 15 8 W - 10

tt = temperature
td = dewpoint
ff = wind speed
dd = wind direction
ppp = reduced air pressure
vv = visibility

Next stations